Weather in Nikolskoye

Russia / Yaroslavl Oblast     57°04′51″N   39°14′40″E
temp.,
°C
wind,
m/s
gust,
m/s
humid.,
%
clouds,
%
prec.,
mm/h
press.,
hPa
HPBL,
m
17 april, sat
sat1700:00+7ene61280100 0.0 1025455
03:00+5ene51283100 0.0 1026373
06:00+4ene5128580 0.0 1026371
09:00+8e696635 0.0 1026559
12:00+13ene79535 0.0 1025933
15:00+14ene79465 0.0 10251122
18:00+12ene710465 0.0 1024962
21:00+8ene5135811 0.0 1025461
18 april, sun
sun1800:00+6ene5146957 0.0 1025444
03:00+4ene5147664 0.0 1025427
06:00+3ene514795 0.0 1025425
09:00+8ene712585 0.0 1025852
12:00+12e79435 0.0 10241470
15:00+13ene793948 0.0 10241899
18:00+12e6104734 0.0 10241453
21:00+8ene4126718 0.0 1026362
19 april, mon
mon1900:00+5ene6128475 0.0 1027466
03:00+4ene498482 0.0 1027485
06:00+3ene51082100 0.0 1028473
09:00+5ene6864100 0.0 1028713
12:00+8ene6858100 0.0 10281147
15:00+9e7851100 0.0 10271553
18:00+9e6856100 0.0 10271489
21:00+5e6125398 0.0 1027537
20 april, tue
tue2000:00+4e51254100 0.0 1027489
03:00+2e5126022 0.0 1027460
06:00+1e6126489 0.0 1026514
09:00+4e71162100 0.0 1024717
12:00+6e71264100 0.0 1023890
15:00+10e91354100 0.0 10201267
18:00+9e91659100 0.0 10161173
21:00+8e101862100 0.0 10141108
21 april, wed
wed2100:00+6e111976100 0.8 1010935
03:00+6ese101889100 3.1 10071117
06:00+6ese91791100 3.5 1005921
09:00+7ese91691100 4.1 1004944
12:00+8se81691100 0.9 10031404
15:00+6s8148298 1.4 10051125
18:00+7s81676100 0.0 10071516
21:00+7s8158083 0.1 10091253